Location: Aiyede
(8.4833°N, 4.4500°E)
Time: 14:44:53
(UTC+00:00)

Envisat - Pass Details

Date: 29 November 2020
Orbit: 764 x 766 km, 98.1° (Epoch: 18 January)

Event Time Altitude Azimuth Distance (km) Brightness Sun altitude
Rises 17:38:35 0° 185° (S) 3,223 6.6 -4.9°
Reaches altitude 10° 17:41:03 10° 193° (SSW) 2,297 6.0 -5.5°
Maximum altitude 17:45:39 36° 259° (W) 1,205 4.9 -6.5°
Drops below altitude 10° 17:50:15 10° 325° (NW) 2,295 5.7 -7.6°
Sets 17:52:43 0° 334° (NNW) 3,221 6.3 -8.2°
